Location: Unspecified
(0.0000°N, 0.0000°E)
Time: 08:34:01
(UTC+00:00)

N. Korean satellite - Pass Details

Date: 24 November 2020
Orbit: 452 x 504 km, 97.2° (Epoch: 27 November)

Event Time Altitude Azimuth Distance (km) Brightness Sun altitude
Rises 04:16:59 0° 44° (NE) 2,559 10.5 -20.9°
Reaches altitude 10° 04:19:58 10° 72° (ENE) 1,691 10.0 -20.2°
Maximum altitude 04:21:45 13° 102° (ESE) 1,503 10.1 -19.8°
Drops below altitude 10° 04:23:34 10° 131° (SE) 1,704 10.4 -19.4°
Sets 04:26:35 0° 159° (SSE) 2,597 10.9 -18.7°
